Regional Weather Roundup
Issued by NWS

Home | Current Version | Previous Version | Text Only | Print | Product List | Glossary On
Versions: 1 2 3 4 5 6 7 8 9 10 11 12 13 14 15 16 17 18 19 20 21 22 23 24 25 26 27 28 29 30 31 32 33 34 35 36 37 38 39 40 41 42 43 44 45 46 47 48 49 50
000
ASUS43 KLMK 022110
RWRKY
KENTUCKY REGIONAL WEATHER ROUNDUP
NATIONAL WEATHER SERVICE LOUISVILLE KY
500 PM EDT TUE SEP 02 2014

NOTE "FAIR" INDICATES FEW OR NO CLOUDS BELOW 12,000 FEET
WITH NO SIGNIFICANT WEATHER AND/OR OBSTRUCTIONS TO VISIBILITY.

KYZ001>023-026-027-061>063-070>075-022200-
WESTERN AND SOUTH CENTRAL KENTUCKY

CITY           SKY/WX    TMP DP  RH WIND       PRES   REMARKS
PADUCAH        CLOUDY    86  70  58 W10       29.93F HX  90
HENDERSON      PTSUNNY   84  70  61 W14       29.92F
OWENSBORO      NOT AVBL
HOPKINSVILLE   MOSUNNY   85  75  71 W6        29.93F HX  93
BOWLING GREEN  MOSUNNY   88  71  57 W8        29.94S HX  94
GLASGOW        MOSUNNY   76  72  88 CALM      29.95F
$$

KYZ024-025-028>034-038-045-046-053-022200-
NORTH CENTRAL KENTUCKY

CITY           SKY/WX    TMP DP  RH WIND       PRES   REMARKS
LOUISVILLE/SDF PTSUNNY   88  72  58 W18G24    29.91F HX  94
LOUISVILLE/LOU MOSUNNY   85  71  63 NW10      29.92S HX  90
FORT KNOX      MOSUNNY   85  72  63 W8        29.93S HX  91
$$

KYZ035>037-039>044-047>052-055>060-089>105-022200-
NORTHEAST KENTUCKY

CITY           SKY/WX    TMP DP  RH WIND       PRES   REMARKS
LEXINGTON      CLOUDY    75  70  84 S10       29.97R
COVINGTON      CLOUDY    75  70  84 NW3       29.95S
FRANKFORT      MOSUNNY   83  71  67 W8G18     29.93S
$$

KYZ054-064>069-076>088-106>120-022200-
SOUTHEAST KENTUCKY

CITY           SKY/WX    TMP DP  RH WIND       PRES   REMARKS
JACKSON        LGT RAIN  75  72  90 VRB3      29.98S
LONDON         MOSUNNY   89  67  47 W15       29.96F HX  92
SOMERSET       CLOUDY    84  68  58 W8        29.98R
MIDDLESBORO    SUNNY     88  70  56 S10       29.97F HX  93
MONTICELLO     PTCLDY    86  73  64 SW5       29.97F HX  93
$$




USA.gov is the U.S. government's official web portal to all federal, state and local government web resources and services.